Regional Weather Roundup
Issued by NWS Charleston, WV

Home | Current Version | Previous Version | Text Only | Print | Product List | Glossary Off
Versions: 1 2 3 4 5 6 7 8 9 10 11 12 13 14 15 16 17 18 19 20 21 22 23 24 25 26 27 28 29 30 31 32 33 34 35 36 37 38 39 40 41 42 43 44 45 46 47 48 49 50

613
ASUS41 KRLX 172010
RWRRLX
West Virginia Regional Weather Roundup
National Weather Service Charleston WV
300 PM EST WED JAN 17 2018

Note: "fair" indicates few or no clouds below 12,000 feet with no
significant weather and/or obstructions to visibility.

WVZ003-172100-
Northern Panhandle of West Virginia

CITY           SKY/WX    TMP DP  RH WIND       PRES   REMARKS
WHEELING         N/A     12   2  64 W7        30.40F WCI   1
$$

WVZ009-172100-
Northwest West Virginia

CITY           SKY/WX    TMP DP  RH WIND       PRES   REMARKS
PARKERSBURG      N/A     11   2  67 SW6       30.52F WCI   1
$$

WVZ006-172100-
Western West Virginia

CITY           SKY/WX    TMP DP  RH WIND       PRES   REMARKS
HUNTINGTON     CLOUDY    13   4  67 VRB3      30.52S
$$

WVZ015-172100-
West Central West Virginia

CITY           SKY/WX    TMP DP  RH WIND       PRES   REMARKS
CHARLESTON     FLURRIES  13   4  67 VRB5      30.48F WCI   5
$$

WVZ022-031-172100-
North Central West Virginia

CITY           SKY/WX    TMP DP  RH WIND       PRES   REMARKS
CLARKSBURG     CLOUDY    13   4  67 W6        30.42S WCI   4
MORGANTOWN     CLOUDY    12   3  67 VRB3      30.41F
$$

WVZ025-035-042-045-172100-
Southern West Virginia

CITY           SKY/WX    TMP DP  RH WIND       PRES   REMARKS
BECKLEY        CLOUDY    10   3  73 N12       30.28F WCI  -5
LOGAN          CLOUDY    10   3  72 CALM      30.40F
BLUEFIELD      PTSUNNY   12   2  64 VRB7      30.23S WCI   1
LEWISBURG      CLOUDY    19   8  63 W8        30.24S WCI   8
$$

WVZ047-172100-
Northern Mountains of West Virginia

CITY           SKY/WX    TMP DP  RH WIND       PRES   REMARKS
ELKINS           N/A     14   5  67 NW10      30.31S WCI   1
$$

WVZ052-172100-
Eastern Panhandle of West Virginia

CITY           SKY/WX    TMP DP  RH WIND       PRES   REMARKS
MARTINSBURG      N/A     25   5  42 N14       30.32F
PETERSBURG       N/A     24   6  45 N7        30.32F
$$




USA.gov is the U.S. government's official web portal to all federal, state and local government web resources and services.